Flag for U.S.A. Weather past 2 weeks in Minot, North Dakota, U.S.A.

Now
51 °F

Clear.


Feels Like: 46 °F
Forecast: 46 / 65 °F
Wind: 14 mph from Southwest

Location: Minot International Airport

Current Time: Oct 24, 2014 at 8:10:23 AM

Latest Report: Oct 24, 2014 at 6:54 AM


Visibility: 10 mi

Pressure: 29.78 "Hg

Humidity: 54%

Dew point: 35 °F

Location of MinotLocation

Historic Weather in Minot — Graph

°F

Minot temperature yesterday

Maximum temperature yesterday: 68 °F (at 2:54 PM)
Minimum temperature yesterday: 42 °F (at 6:54 AM)
Average temperature yesterday: 54 °F

Past Weeks' High & Low Weather Summary

 TemperatureHumidityPressure
High73 °F (Oct 15, 3:54 PM)92% (Oct 18, 2:54 AM)30.33 "Hg (Oct 18, 2:54 AM)
Low26 °F (Oct 9, 7:54 AM)25% (Oct 23, 2:54 PM)29.46 "Hg (Oct 16, 12:54 AM)
Average52 °F59%29.89 "Hg
* Reported Oct 9 6:54 AM — Oct 24 6:54 AM, Minot, Weather by CustomWeather, © 2014

Note: Actual official high and low records may vary slightly from our data, if they occured in-between our weather recording intervals... More about our weather records

Advertising

Minot weather history for previous 24 hours

 ConditionsComfort  
Time TempWeatherWind HumidityBarometerVisibility
6:54 AM
Oct 24
51 °FClear.14 mph54%29.78 "Hg10 mi
5:54 AM48 °FClear.10 mph59%29.75 "Hg10 mi
4:54 AM50 °FClear.12 mph54%29.76 "Hg10 mi
3:54 AM49 °FClear.10 mph55%29.76 "Hg10 mi
2:54 AM53 °FClear.13 mph47%29.75 "Hg10 mi
1:54 AM52 °FClear.10 mph49%29.75 "Hg10 mi
12:54 AM56 °FClear.13 mph40%29.75 "Hg10 mi
11:54 PM
Oct 23
56 °FClear.12 mph40%29.75 "Hg10 mi
10:54 PM53 °FClear.12 mph47%29.76 "Hg10 mi
9:54 PM54 °FClear.12 mph43%29.77 "Hg10 mi
8:54 PM54 °FClear.9 mph43%29.78 "Hg10 mi
7:54 PM56 °FClear.7 mph44%29.77 "Hg10 mi
6:54 PM58 °FSunny.5 mph41%29.75 "Hg10 mi
5:54 PM63 °FSunny.7 mph33%29.75 "Hg10 mi
4:54 PM66 °FSunny.9 mph26%29.75 "Hg10 mi
3:54 PM66 °FSunny.9 mph27%29.76 "Hg10 mi
2:54 PM68 °FSunny.14 mph25%29.76 "Hg10 mi
1:54 PM66 °FSunny.8 mph28%29.78 "Hg10 mi
12:54 PM63 °FSunny.7 mph34%29.81 "Hg10 mi
11:54 AM58 °FSunny.7 mph41%29.83 "Hg10 mi
10:54 AM54 °FSunny.13 mph47%29.84 "Hg10 mi
9:54 AM48 °FSunny.13 mph59%29.85 "Hg10 mi
8:54 AM44 °FClear.12 mph68%29.86 "Hg10 mi
Weather by CustomWeather, © 2014

See weather overviewHow to use our weather pages